Temperature
20 19 19 19 18 18 20 21 21 22 22 23 23 23 21 20 20 19 19 19 19 19 18 18 18 18 18 18 18 18 18 18 18 18 18 18 18 18 18 18 18 18 18 18 18 18 18 18 18
20 20 20 19 18 19 20 21 21 22 23 23 23 22 21 20 20 19 19 19 19 19 19 18 18 18 18 18 18 18 18 18 18 18 18 18 18 18 18 18 18 18 18 18 18 18 18 18 18
20 20 20 18 19 19 21 21 22 23 24 24 23 22 21 20 20 20 20 19 19 19 19 19 18 18 18 18 18 18 18 18 18 17 17 17 17 17 18 18 18 18 18 18 18 18 18 18 18
20 20 19 18 20 20 21 21 22 23 24 24 23 21 21 21 21 20 20 19 19 19 19 19 18 18 18 18 18 18 18 17 17 17 17 17 17 17 17 17 17 17 17 17 18 18 18 18 18
20 20 19 19 21 21 21 22 22 22 23 23 22 20 21 21 21 20 20 20 19 19 19 19 18 18 18 18 18 17 17 17 17 17 17 17 17 17 17 17 17 17 17 17 17 17 17 18 18
20 18 19 19 21 21 21 22 22 22 23 22 21 20 20 21 20 20 20 20 20 19 19 19 18 18 18 18 17 17 17 17 17 17 17 16 16 16 16 16 16 16 16 17 17 17 17 17 17
20 18 19 20 20 21 22 22 22 22 22 23 22 20 20 20 20 20 20 20 20 19 19 19 18 18 18 17 17 17 17 16 16 16 16 16 16 16 16 16 16 16 16 16 16 17 17 17 17
21 18 19 19 20 21 22 23 23 23 23 23 23 20 20 21 21 20 20 20 19 19 19 19 18 18 18 18 17 17 17 16 16 16 16 16 16 16 15 15 15 16 16 16 16 16 16 17 17
21 18 18 19 20 21 22 23 23 24 24 23 23 23 22 21 21 20 20 19 19 19 19 19 18 18 18 17 17 17 16 16 16 16 16 16 15 15 15 15 15 15 15 15 16 16 16 16 16
20 18 19 20 20 21 22 23 23 23 23 23 23 23 22 21 21 20 20 20 20 19 19 19 19 18 18 17 17 17 16 16 16 16 15 15 15 15 15 15 15 15 15 15 15 15 16 16 16
19 19 20 21 22 22 22 23 23 23 22 22 23 22 22 21 21 21 20 20 20 20 19 19 19 18 18 17 17 17 16 16 16 15 15 15 15 15 15 15 15 15 15 15 15 15 15 15 16
20 20 21 21 22 22 22 22 23 23 23 24 24 23 22 22 21 21 21 20 20 20 19 19 19 18 18 17 17 17 16 16 16 15 15 15 15 15 15 15 15 15 15 15 15 15 15 15 15
20 20 21 21 22 22 22 22 23 23 24 24 23 23 22 22 22 21 21 21 20 20 19 19 18 18 18 17 17 17 16 16 15 15 15 15 15 15 15 15 14 14 14 14 15 15 15 15 15
20 20 20 21 21 22 22 22 22 23 24 23 23 22 22 22 22 21 21 21 20 20 19 19 18 18 18 17 17 16 16 16 15 15 15 15 15 14 14 14 14 14 14 14 14 14 15 15 15
20 20 20 20 21 21 22 21 21 23 23 23 22 22 22 22 22 22 21 21 21 20 19 19 18 18 18 17 17 16 16 15 15 15 15 15 14 14 14 14 14 14 14 14 14 14 14 15 15
19 19 19 20 20 21 21 20 21 23 22 22 22 22 22 22 22 22 21 21 21 20 19 19 18 18 17 17 16 16 16 15 15 15 15 14 14 14 14 14 14 14 14 14 14 14 14 14 15
18 18 19 19 21 21 21 20 21 22 22 22 22 22 22 22 22 22 21 21 21 20 19 19 18 18 17 17 16 16 16 15 15 15 14 14 14 14 14 14 14 14 14 14 14 14 14 14 14
18 18 19 19 20 20 20 20 20 22 22 22 21 22 22 22 22 22 21 21 21 20 19 19 18 18 17 17 16 16 15 15 15 14 14 14 14 14 14 14 14 13 13 13 13 14 14 14 14
19 19 19 20 21 20 20 20 20 21 21 21 21 21 21 21 22 21 21 21 20 20 19 19 18 17 17 16 16 16 15 15 14 14 14 14 14 14 14 13 13 13 13 13 13 13 13 14 14
20 19 19 20 21 21 20 20 20 20 21 21 21 21 21 21 21 21 21 20 20 20 19 19 18 17 17 16 16 15 15 14 14 14 14 14 14 14 13 13 13 13 13 13 13 13 13 13 14
20 20 20 20 20 21 20 20 20 21 21 22 22 22 21 21 21 21 20 20 20 19 19 18 18 17 17 16 16 15 15 15 14 14 14 14 14 13 13 13 13 13 13 13 13 13 13 13 13
20 21 21 21 19 18 20 19 20 20 20 20 21 21 21 21 21 21 21 20 20 19 19 18 18 17 16 16 16 15 15 15 14 14 14 14 14 13 13 13 13 13 13 13 13 13 13 13 13
21 21 21 21 19 19 19 19 19 20 20 20 20 21 22 22 22 21 21 20 20 19 19 18 17 17 16 16 16 15 15 15 14 14 14 14 14 13 13 13 13 13 13 13 13 13 13 13 13
22 20 20 18 17 18 19 19 19 19 20 20 20 21 22 22 22 21 21 20 20 19 18 18 17 17 16 16 16 15 15 15 14 14 14 14 14 14 13 13 13 13 13 13 13 13 13 13 13
20 18 17 18 17 18 19 19 19 20 21 21 20 21 22 22 22 21 20 20 19 19 18 18 17 17 16 16 16 15 15 15 14 14 14 14 14 14 13 13 13 13 13 13 13 13 13 13 13
20 18 17 18 18 17 18 19 20 21 22 22 22 22 22 22 22 21 21 20 20 19 18 18 17 17 16 16 16 15 15 15 15 14 14 14 14 14 13 13 13 13 13 13 13 13 13 13 13
20 18 18 17 18 17 18 20 21 21 21 21 21 21 21 22 22 21 21 20 20 19 19 18 17 17 16 16 16 15 15 15 15 14 14 14 14 14 13 13 13 13 13 13 13 13 13 13 13
20 19 17 17 18 18 19 19 19 21 21 21 20 20 21 22 22 21 21 20 20 20 19 18 18 17 17 16 16 15 15 15 15 14 14 14 14 14 13 13 13 13 13 13 13 13 12 12 12
21 20 18 16 17 17 18 19 20 20 20 20 20 21 22 22 22 22 21 21 20 20 19 18 18 17 17 16 16 15 15 15 15 14 14 14 14 14 13 13 13 13 13 13 13 13 13 12 12
21 21 18 18 18 17 17 18 21 20 20 21 21 22 23 23 22 22 21 21 20 20 19 18 18 17 17 16 16 16 15 15 15 14 14 14 14 14 13 13 13 13 13 13 13 13 13 12 12
Wind_Speed
9 5 3 2 3 2 1 3 3 2 0 1 5 9 8 5 4 4 3 11 12 10 11 11 11 10 9 8 8 8 7 7 6 6 6 6 6 5 5 5 5 5 5 4 4 4 3 3 3
5 4 2 3 3 1 2 3 4 4 5 5 6 7 7 5 5 8 6 12 13 12 11 12 12 11 10 9 8 7 7 6 6 6 5 5 5 4 4 4 4 4 4 3 3 2 2 2 3
4 3 2 3 1 3 3 4 4 2 3 4 4 5 5 6 6 7 9 14 13 11 12 13 13 12 10 9 8 7 6 6 5 5 4 4 4 4 4 3 3 3 3 3 3 2 2 2 2
2 2 2 1 4 5 4 4 2 1 2 3 6 5 4 4 6 8 14 15 13 11 12 14 14 13 11 9 8 7 6 5 4 4 3 3 3 3 3 3 3 3 3 3 2 2 2 2 2
2 3 2 2 4 3 3 3 1 2 2 3 6 6 3 2 9 15 15 14 14 11 11 14 15 13 11 9 8 7 6 5 4 2 2 2 2 2 2 2 2 2 2 2 2 2 2 2 3
2 3 1 2 3 1 1 1 1 1 4 6 7 6 3 4 11 14 14 13 14 13 11 12 15 13 12 10 9 7 5 4 3 2 1 1 1 2 3 3 3 4 3 3 3 3 3 3 4
4 3 2 2 2 2 2 3 3 4 5 6 9 6 4 5 9 11 12 12 12 11 10 9 12 12 12 10 9 7 6 4 4 3 2 3 3 4 5 5 5 5 4 4 4 4 5 5 5
4 3 1 1 2 3 3 2 3 4 4 7 7 9 7 9 9 10 11 10 10 9 9 8 9 10 9 9 9 8 6 5 4 3 4 4 5 6 6 6 6 6 5 5 5 5 6 6 6
4 3 2 4 4 4 3 2 2 2 4 3 4 7 9 12 11 10 9 6 7 9 8 8 7 8 9 9 8 7 6 5 3 3 4 4 5 5 5 6 7 7 6 6 6 6 6 6 6
4 3 6 5 4 3 4 3 3 2 3 3 4 6 10 12 12 11 11 10 9 9 9 8 8 7 7 7 5 5 4 3 2 3 3 3 4 3 3 4 4 5 5 6 7 7 7 6 4
5 5 5 5 5 4 4 4 1 5 3 7 11 13 13 12 11 11 11 11 10 10 9 8 8 7 6 3 4 3 2 2 1 2 2 1 2 3 3 3 4 4 4 4 5 5 5 3 3
4 4 5 5 5 4 4 3 2 4 7 9 15 17 14 13 13 12 12 11 9 9 8 8 8 7 5 4 3 3 2 1 1 1 0 1 1 1 1 1 2 2 2 2 2 2 3 3 4
3 4 5 6 6 6 4 5 4 4 4 7 12 14 14 14 12 10 11 11 10 9 8 8 8 7 5 4 2 3 1 2 2 1 1 2 1 1 1 1 2 2 2 1 2 2 2 3 3
3 3 5 6 6 5 3 5 2 4 4 7 10 11 12 13 13 10 10 10 10 9 9 8 8 7 6 4 3 2 2 2 2 2 2 2 1 1 1 2 2 2 2 2 1 1 1 2 2
1 2 6 5 5 4 2 2 4 4 4 7 9 9 10 11 11 13 13 12 11 10 9 8 8 7 7 5 4 3 2 3 2 1 2 3 3 2 1 1 2 2 3 2 2 2 1 2 2
2 2 3 6 3 3 2 5 7 4 6 7 8 8 9 9 10 11 12 11 11 10 9 8 8 7 6 5 4 2 2 2 1 1 2 3 3 2 1 1 2 2 2 2 2 1 2 2 2
3 0 3 6 3 2 2 6 8 5 7 8 9 9 8 8 8 9 10 12 12 12 10 8 8 7 6 5 4 3 2 2 1 1 1 1 2 2 1 1 2 2 2 2 2 1 1 2 3
3 3 3 5 4 1 3 7 9 7 6 7 8 8 8 8 9 9 10 11 11 10 10 9 7 6 5 4 3 3 3 2 1 1 0 0 1 2 1 1 2 2 2 2 2 2 1 1 2
5 4 4 7 5 2 5 8 9 7 5 7 7 8 9 8 7 8 10 11 10 9 9 8 8 6 5 3 2 2 1 1 1 1 1 0 0 1 1 1 2 2 1 1 1 1 1 2 1
5 4 5 6 4 2 4 7 7 5 7 9 10 11 11 8 7 8 9 9 10 9 9 8 8 7 5 3 3 2 2 1 1 2 2 1 1 1 1 0 1 1 1 2 1 1 0 1 1
5 6 5 5 3 2 2 5 4 3 3 5 8 10 11 13 12 11 10 9 10 10 10 9 8 7 5 4 3 3 3 2 2 2 2 2 2 1 1 1 1 1 0 1 1 0 1 0 1
4 5 4 2 1 3 1 2 6 4 2 4 7 9 10 11 11 11 10 10 10 10 9 9 8 7 6 5 5 4 2 1 2 2 2 3 2 2 2 1 1 1 0 1 1 1 1 2 0
5 4 2 1 2 2 2 1 6 2 3 5 7 9 10 11 12 12 11 11 10 9 9 8 7 6 5 6 6 5 3 2 1 1 2 2 3 2 2 1 1 1 1 1 1 0 1 1 2
2 4 5 5 4 1 3 2 5 5 8 7 7 8 10 10 10 10 9 9 8 8 8 8 8 6 5 6 5 5 4 3 1 1 2 2 2 2 3 1 1 1 1 1 1 1 1 1 1
6 6 5 6 4 4 4 1 6 7 7 9 10 10 10 10 11 10 10 10 10 10 9 8 8 6 6 6 5 5 5 4 3 2 2 1 1 2 3 1 1 1 1 1 1 1 1 1 1
1 6 5 2 2 4 4 2 7 7 3 5 8 9 9 10 10 11 12 11 11 11 10 9 8 7 6 6 5 4 4 3 2 2 2 2 2 2 2 1 1 1 1 1 1 1 1 1 1
2 2 5 6 1 1 4 4 6 4 3 5 7 9 10 11 11 11 11 11 11 11 10 10 9 7 6 6 5 4 4 4 3 2 1 1 1 1 1 1 1 1 1 0 0 0 1 1 1
4 6 5 4 2 2 4 3 3 4 4 4 7 9 10 10 10 10 10 10 10 10 9 9 9 8 7 6 5 4 4 4 3 1 1 0 1 1 1 1 1 1 1 1 0 0 1 1 1
1 2 4 4 4 4 1 5 5 7 7 7 9 9 10 11 11 10 10 10 10 9 8 8 8 7 6 6 5 5 4 3 2 2 1 1 1 1 1 1 1 1 1 1 0 0 1 1 1
4 4 6 4 1 3 3 6 7 6 6 6 7 7 8 10 10 10 9 8 8 9 9 9 9 8 7 7 6 5 4 3 2 2 1 1 0 1 1 1 1 1 1 1 0 1 1 0 1
Wind_Direction
195 174 112 68 56 47 253 246 202 190 23 51 80 92 93 81 110 145 166 146 142 144 145 140 136 131 125 117 111 105 100 97 93 89 83 78 68 61 54 47 44 45 47 53 56 53 40 33 33
167 153 111 62 80 84 253 226 195 183 168 129 89 92 89 87 102 119 131 149 146 147 147 144 140 135 129 124 117 108 100 94 90 85 81 74 65 56 50 43 36 35 33 34 41 45 28 8 7
168 170 129 83 149 194 222 232 209 188 165 128 98 73 97 129 130 143 158 152 147 146 148 150 146 142 138 134 127 119 109 100 93 86 79 69 60 55 45 39 35 32 29 27 28 24 5 345 336
130 76 57 83 243 227 205 222 229 75 76 84 107 77 72 125 145 151 151 149 145 148 154 156 153 151 148 145 140 133 127 118 105 93 82 67 54 46 39 30 29 28 22 18 14 0 331 309 301
81 94 37 298 260 238 220 232 162 166 136 101 101 96 73 67 124 140 149 150 149 155 162 163 159 158 155 151 146 142 140 136 129 117 103 68 36 20 8 354 346 340 339 342 333 322 313 295 286
62 75 88 282 289 280 256 230 106 153 126 112 107 114 147 145 136 149 151 154 156 160 167 169 165 162 159 156 155 152 150 151 156 168 187 257 306 315 310 302 301 306 312 309 310 297 295 291 286
138 128 201 232 284 287 216 213 164 165 142 155 139 123 157 177 163 154 153 154 158 160 162 169 169 168 167 167 166 165 167 176 187 212 248 274 293 297 291 290 288 289 296 298 299 296 291 285 282
148 122 238 247 231 247 235 203 181 166 156 147 140 146 176 196 170 150 149 151 156 161 164 167 171 173 175 178 179 178 185 196 211 240 264 279 294 298 291 282 277 283 290 293 294 296 294 288 283
113 98 216 219 211 246 246 211 210 156 131 136 152 167 175 163 150 140 142 149 160 165 169 169 174 181 183 187 190 186 197 212 233 269 288 303 310 306 300 286 269 274 280 290 293 294 298 297 292
124 174 226 217 198 228 265 243 208 122 114 95 96 124 141 150 153 156 160 165 170 171 171 171 174 180 180 185 178 185 201 222 251 269 296 308 315 322 335 320 302 286 286 296 297 296 298 298 294
167 202 235 251 246 228 265 277 213 144 180 175 163 160 157 160 164 169 170 171 174 168 163 166 169 167 165 170 163 166 186 197 220 261 273 306 0 7 16 358 349 334 320 317 312 315 311 299 281
192 239 249 268 265 248 239 249 232 192 213 187 168 163 164 168 174 177 175 174 163 153 158 158 157 156 158 153 147 152 163 170 189 235 194 100 42 14 359 353 346 338 327 318 312 305 308 298 283
246 274 282 279 275 255 248 246 248 241 220 172 165 163 168 174 180 183 175 166 154 151 151 149 146 146 147 135 141 133 147 154 157 123 85 98 85 354 353 336 343 332 330 324 315 313 324 306 296
232 272 298 296 288 289 258 263 247 253 178 154 161 169 177 181 179 172 166 161 160 157 151 146 139 139 134 130 125 125 136 128 108 90 74 83 92 53 27 3 346 329 328 322 301 316 319 299 295
343 342 324 301 277 271 253 288 245 243 157 159 163 174 182 187 176 172 172 168 164 156 147 145 140 134 127 123 118 119 119 111 102 102 83 74 76 80 55 16 346 323 333 339 347 344 347 329 318
40 41 305 286 277 276 146 248 256 233 165 179 174 176 176 186 179 173 167 161 158 149 144 142 136 128 123 121 112 113 111 104 101 93 73 71 70 68 45 12 332 324 351 351 343 342 343 328 319
35 52 270 293 280 268 175 238 245 227 191 191 183 181 178 180 174 167 159 153 152 150 143 136 131 132 127 119 106 101 96 91 96 79 65 65 45 51 62 358 319 342 4 353 332 348 317 309 313
204 210 259 276 285 267 241 249 254 245 216 203 187 184 179 175 176 164 151 146 146 144 140 139 133 131 122 104 86 70 60 47 50 67 89 72 18 43 54 4 344 359 10 347 343 318 300 274 292
186 194 245 262 264 230 250 257 257 249 226 211 191 179 178 180 170 151 147 143 139 140 141 142 138 139 126 109 111 106 85 339 343 297 240 288 322 48 72 351 338 352 346 303 313 322 318 316 354
202 222 250 275 272 226 260 265 258 236 215 201 184 175 173 164 148 150 147 145 146 149 148 145 145 147 143 144 154 159 161 222 254 292 312 302 273 254 205 201 314 322 328 331 337 16 353 329 41
233 223 230 249 306 346 344 325 300 280 234 190 176 172 170 168 163 162 156 153 149 154 158 155 154 154 150 142 114 80 57 30 5 332 316 301 275 261 257 251 263 295 272 293 292 235 153 303 330
241 232 213 240 57 311 46 300 292 279 261 181 169 171 172 171 166 164 161 159 161 163 157 150 155 156 155 144 134 137 140 178 237 249 268 295 295 276 260 261 254 277 240 262 279 201 185 161 253
207 207 199 222 159 335 357 145 287 301 210 206 190 186 179 174 170 169 169 168 165 158 154 156 153 154 158 154 149 146 151 194 241 277 295 310 307 291 288 282 285 278 253 253 279 3 172 170 179
139 51 35 47 71 350 273 170 272 238 212 198 194 187 177 174 169 166 164 155 153 152 151 153 154 162 163 156 152 158 165 174 172 257 300 309 306 305 306 289 294 282 252 246 245 211 176 187 193
63 73 32 14 17 273 287 173 254 259 223 192 185 184 179 172 164 161 159 160 159 158 158 159 159 166 167 158 162 173 176 174 181 212 241 267 289 289 288 289 281 274 251 228 216 211 234 226 210
119 127 142 170 241 295 341 304 275 291 225 164 161 162 161 167 169 169 171 169 167 167 165 163 166 170 171 167 172 176 173 171 189 204 212 233 246 259 278 286 271 266 268 230 198 232 252 232 233
116 129 160 134 122 352 320 310 321 5 72 121 141 148 167 177 177 176 175 173 172 173 175 173 170 171 176 175 169 169 170 172 186 202 208 233 257 266 286 282 298 307 324 326 131 282 291 288 262
145 148 94 97 103 8 324 293 254 253 219 183 176 180 187 183 179 178 179 181 181 179 178 172 169 174 179 176 174 173 178 184 182 172 195 261 283 309 336 334 325 314 324 334 77 306 313 348 300
64 97 105 110 143 142 285 282 243 223 217 203 205 200 193 189 186 185 186 186 182 176 172 171 174 173 176 176 173 165 177 179 163 165 203 212 263 315 332 331 333 331 319 317 9 309 345 352 330
183 176 143 138 222 166 171 271 282 238 228 206 208 208 201 195 191 188 185 179 178 179 179 178 179 177 179 175 168 168 169 163 158 175 204 195 229 293 310 345 8 1 351 345 7 312 339 2 331
Height
1513 1513 1514 1514 1515 1520 1520 1512 1505 1503 1501 1499 1498 1498 1502 1506 1510 1517 1513 1512 1514 1514 1515 1516 1517 1517 1517 1517 1517 1517 1517 1517 1517 1517 1517 1517 1517 1517 1517 1517 1517 1517 1517 1517 1517 1517 1517 1518 1518
1513 1513 1515 1514 1519 1527 1520 1508 1505 1500 1499 1499 1500 1501 1502 1506 1507 1509 1510 1512 1514 1515 1516 1516 1517 1517 1517 1517 1517 1517 1516 1516 1516 1516 1516 1516 1516 1516 1516 1516 1516 1516 1516 1516 1516 1516 1517 1517 1517
1512 1513 1514 1514 1520 1523 1516 1506 1502 1498 1497 1498 1500 1502 1504 1506 1507 1508 1510 1512 1514 1515 1516 1517 1517 1517 1517 1517 1517 1516 1516 1516 1515 1515 1515 1515 1515 1515 1515 1515 1515 1515 1515 1515 1515 1515 1516 1516 1516
1512 1513 1513 1517 1517 1511 1506 1502 1499 1498 1498 1498 1500 1504 1506 1507 1507 1508 1510 1512 1513 1515 1516 1517 1517 1517 1517 1517 1517 1516 1516 1515 1515 1515 1515 1514 1514 1514 1514 1514 1513 1513 1513 1513 1514 1514 1514 1514 1515
1512 1511 1515 1518 1512 1505 1502 1500 1499 1498 1498 1499 1500 1504 1506 1508 1508 1509 1510 1512 1514 1515 1516 1517 1517 1517 1517 1517 1516 1516 1515 1515 1514 1514 1514 1513 1513 1513 1513 1512 1512 1512 1512 1512 1512 1512 1513 1513 1513
1511 1511 1519 1521 1512 1504 1500 1498 1498 1498 1499 1500 1501 1504 1507 1508 1508 1510 1511 1512 1514 1515 1516 1517 1517 1517 1517 1516 1516 1515 1515 1514 1514 1513 1513 1513 1512 1512 1512 1511 1511 1511 1510 1510 1510 1510 1511 1511 1512
1510 1512 1517 1516 1512 1506 1501 1498 1497 1497 1497 1499 1500 1504 1507 1508 1509 1510 1511 1513 1514 1515 1515 1516 1516 1517 1516 1516 1516 1515 1514 1514 1513 1513 1512 1512 1512 1511 1511 1510 1510 1509 1509 1509 1508 1508 1508 1509 1510
1507 1511 1514 1514 1511 1506 1499 1497 1496 1496 1496 1498 1499 1501 1504 1506 1509 1510 1512 1513 1514 1515 1515 1516 1516 1516 1516 1516 1515 1515 1514 1513 1513 1512 1512 1511 1511 1510 1509 1509 1509 1508 1508 1507 1507 1507 1507 1507 1508
1506 1514 1516 1511 1508 1503 1498 1497 1496 1495 1496 1497 1498 1498 1500 1504 1508 1510 1511 1512 1513 1514 1515 1515 1516 1516 1516 1515 1515 1514 1514 1513 1512 1512 1511 1510 1510 1509 1508 1508 1507 1507 1506 1506 1506 1505 1505 1505 1506
1505 1513 1509 1501 1500 1499 1497 1496 1495 1495 1495 1496 1498 1498 1500 1503 1506 1508 1509 1511 1512 1513 1514 1514 1515 1515 1515 1515 1514 1514 1513 1513 1512 1511 1510 1509 1509 1508 1507 1507 1506 1506 1505 1505 1504 1504 1504 1504 1504
1503 1506 1501 1498 1497 1497 1496 1495 1494 1495 1496 1495 1495 1497 1500 1502 1505 1507 1508 1509 1511 1512 1513 1514 1514 1514 1514 1514 1514 1513 1513 1512 1511 1510 1509 1508 1508 1507 1506 1505 1505 1504 1504 1503 1503 1502 1502 1502 1503
1501 1499 1499 1497 1495 1495 1495 1495 1494 1493 1493 1492 1493 1495 1498 1500 1503 1505 1507 1508 1510 1511 1512 1512 1513 1513 1513 1513 1513 1512 1512 1511 1510 1509 1508 1507 1506 1506 1505 1504 1503 1503 1502 1502 1501 1501 1501 1501 1501
1499 1497 1496 1496 1494 1493 1493 1493 1493 1491 1491 1492 1493 1495 1497 1499 1501 1504 1506 1507 1509 1510 1511 1511 1512 1512 1512 1512 1512 1511 1511 1510 1509 1508 1507 1506 1505 1504 1503 1503 1502 1501 1500 1500 1500 1499 1499 1499 1499
1497 1496 1496 1494 1493 1492 1491 1491 1493 1491 1490 1491 1492 1494 1496 1498 1500 1502 1504 1506 1507 1508 1510 1510 1511 1511 1511 1511 1511 1510 1510 1509 1508 1507 1507 1505 1504 1503 1502 1501 1500 1499 1499 1498 1498 1497 1497 1497 1497
1495 1497 1496 1494 1492 1492 1491 1493 1491 1489 1490 1491 1492 1493 1495 1497 1498 1499 1501 1503 1505 1507 1508 1509 1510 1510 1510 1510 1510 1509 1509 1508 1507 1506 1505 1504 1503 1501 1500 1499 1498 1498 1497 1496 1496 1495 1495 1495 1495
1497 1501 1505 1495 1492 1490 1494 1499 1489 1487 1489 1490 1490 1491 1493 1495 1496 1498 1500 1502 1504 1505 1507 1508 1509 1509 1509 1509 1509 1508 1508 1507 1506 1505 1504 1503 1501 1500 1499 1498 1497 1496 1495 1494 1494 1493 1493 1493 1493
1503 1509 1506 1498 1491 1490 1492 1495 1486 1485 1486 1487 1488 1489 1491 1494 1496 1497 1499 1500 1502 1504 1505 1507 1508 1508 1508 1508 1508 1507 1507 1506 1505 1504 1503 1501 1500 1498 1497 1496 1495 1494 1493 1492 1492 1491 1491 1491 1491
1508 1508 1505 1501 1491 1490 1492 1491 1484 1483 1484 1484 1486 1488 1490 1492 1494 1496 1497 1499 1501 1503 1505 1506 1507 1507 1507 1507 1507 1506 1506 1505 1504 1503 1502 1500 1499 1497 1496 1494 1493 1492 1491 1490 1490 1489 1489 1489 1489
1497 1501 1502 1496 1488 1490 1491 1488 1483 1481 1482 1482 1484 1486 1488 1490 1493 1495 1497 1498 1500 1502 1503 1505 1505 1506 1506 1505 1505 1505 1504 1504 1503 1502 1501 1499 1498 1496 1495 1493 1491 1490 1489 1489 1488 1488 1488 1488 1488
1495 1499 1499 1493 1486 1488 1490 1487 1481 1479 1479 1479 1481 1483 1485 1489 1492 1494 1496 1497 1499 1501 1502 1503 1504 1504 1504 1504 1504 1504 1503 1503 1502 1501 1500 1498 1497 1495 1493 1492 1490 1489 1488 1487 1487 1487 1486 1487 1487
1494 1497 1496 1494 1488 1486 1490 1491 1484 1478 1477 1478 1479 1481 1484 1487 1489 1492 1494 1496 1498 1499 1501 1502 1503 1503 1503 1503 1503 1503 1503 1502 1501 1500 1499 1497 1496 1494 1492 1491 1489 1488 1487 1486 1486 1486 1485 1485 1486
1496 1487 1488 1489 1496 1501 1495 1506 1490 1482 1479 1478 1479 1480 1482 1485 1488 1490 1493 1495 1497 1498 1500 1501 1501 1502 1502 1502 1502 1502 1502 1501 1500 1499 1498 1497 1495 1493 1492 1490 1488 1487 1486 1485 1485 1485 1484 1485 1485
1487 1482 1485 1488 1495 1501 1499 1506 1497 1484 1483 1480 1478 1479 1480 1482 1485 1488 1491 1493 1495 1497 1498 1500 1500 1501 1501 1502 1502 1501 1501 1501 1500 1499 1498 1496 1495 1493 1491 1489 1488 1486 1485 1484 1484 1484 1483 1483 1484
1479 1484 1489 1495 1501 1512 1502 1506 1501 1488 1480 1477 1477 1477 1478 1481 1484 1487 1490 1492 1494 1496 1497 1498 1499 1500 1501 1501 1501 1501 1500 1500 1499 1498 1497 1496 1494 1492 1490 1489 1487 1486 1485 1484 1483 1483 1483 1482 1483
1484 1499 1514 1516 1521 1516 1499 1501 1496 1476 1472 1472 1473 1475 1477 1480 1483 1486 1488 1490 1492 1494 1496 1497 1498 1499 1499 1500 1500 1500 1499 1499 1498 1497 1496 1495 1493 1491 1490 1488 1487 1485 1484 1483 1482 1482 1482 1481 1481
1488 1497 1516 1524 1524 1517 1503 1502 1488 1472 1469 1469 1471 1474 1477 1479 1482 1484 1486 1488 1491 1492 1494 1495 1497 1497 1498 1499 1499 1499 1499 1498 1498 1497 1495 1494 1493 1491 1489 1488 1487 1485 1484 1483 1482 1481 1481 1480 1480
1489 1496 1497 1511 1514 1519 1510 1496 1482 1473 1472 1472 1473 1475 1477 1479 1481 1483 1485 1487 1489 1491 1492 1494 1495 1496 1497 1497 1498 1498 1498 1497 1497 1496 1495 1494 1492 1491 1489 1488 1486 1485 1484 1482 1482 1481 1480 1479 1479
1483 1489 1502 1511 1520 1525 1513 1504 1498 1482 1477 1475 1475 1475 1476 1478 1480 1482 1483 1485 1487 1489 1491 1492 1493 1494 1495 1496 1496 1497 1497 1496 1496 1495 1494 1493 1492 1490 1489 1487 1486 1485 1483 1482 1481 1480 1479 1479 1478
1486 1490 1498 1509 1513 1523 1523 1511 1481 1478 1475 1474 1473 1473 1474 1476 1477 1479 1481 1483 1485 1487 1489 1490 1492 1493 1494 1495 1495 1495 1495 1495 1495 1494 1493 1492 1491 1490 1488 1487 1486 1484 1483 1482 1481 1480 1479 1478 1478
1481 1485 1494 1508 1511 1513 1518 1508 1473 1472 1471 1470 1471 1472 1473 1474 1476 1477 1479 1481 1483 1485 1487 1488 1490 1491 1492 1493 1494 1494 1494 1494 1494 1493 1492 1492 1490 1489 1488 1487 1485 1484 1483 1482 1481 1480 1479 1478 1478